EW5205 Weather Reports


Display with metric or nautical units.
time (UTC)temp
F
wind
direction
speed
MPH
gust
MPH
rain 1hr
in
rain 24hr
in
rain mn
in
humidity
%
barometer
mb
20260503050057 46 128 4.0 8.0 0.00 0.37 0.37 63 1024.0
20260503044557 47 124 5.0 7.0 0.00 0.37 0.37 63 1024.1
20260503043037 48 98 7.0 10.0 0.00 0.37 0.37 66 1024.2
20260503041540 48 95 8.0 12.0 0.00 0.37 0.37 65 1024.2
20260503040042 48 107 9.0 12.0 0.00 0.37 0.37 64 1024.0
20260503034535 48 113 7.0 10.0 0.00 0.37 0.37 63 1024.0
20260503033038 48 98 6.0 8.0 0.00 0.37 0.37 62 1023.9
20260503031633 49 93 6.0 11.0 0.00 0.37 0.37 62 1023.6
20260503030044 49 93 8.0 11.0 0.00 0.37 0.37 63 1023.3
20260503024532 50 89 10.0 14.0 0.00 0.37 0.37 64 1023.2
20260503023032 49 91 8.0 12.0 0.00 0.37 0.37 63 1023.1
20260503021531 50 79 6.0 7.0 0.00 0.37 0.37 63 1022.9
20260503020031 51 79 3.0 4.0 0.00 0.37 0.37 64 1022.7
20260503014530 52 110 2.0 3.0 0.00 0.37 0.37 65 1022.6
20260503013035 53 95 3.0 5.0 0.00 0.37 0.37 66 1022.4
20260503011529 53 98 6.0 9.0 0.00 0.37 0.37 66 1022.4
20260503010034 53 100 6.0 8.0 0.00 0.37 0.37 66 1022.4
20260503004528 53 113 7.0 10.0 0.00 0.37 0.37 64 1022.5
20260503003027 53 105 5.0 7.0 0.00 0.37 0.37 64 1022.8
20260503001526 52 83 8.0 9.0 0.01 0.37 0.37 62 1022.9
20260503000026 52 65 7.0 10.0 0.03 0.37 0.37 58 1023.2
20260502234529 51 63 8.0 14.0 0.07 0.37 0.37 48 1023.2
20260502233027 50 48 8.0 12.0 0.10 0.37 0.37 41 1023.4
20260502231524 50 50 8.0 11.0 0.12 0.36 0.36 36 1023.7
20260502230005 49 36 7.0 8.0 0.12 0.35 0.35 37 1024.0
20260502224549 50 13 5.0 8.0 0.07 0.30 0.30 42 1024.1
20260502223014 50 17 4.0 9.0 0.05 0.27 0.27 50 1023.9
20260502221605 51 12 6.0 10.0 0.11 0.25 0.25 56 1023.7
20260502214528 52 104 8.0 13.0 0.23 0.23 0.23 62 1023.1
20260502213124 51 83 11.0 14.0 0.23 0.23 0.23 64 1023.3
20260502211546 52 81 9.0 12.0 0.16 0.16 0.16 65 1023.7
20260502204529 53 100 10.0 14.0 0.00 0.00 0.00 66 1023.8
20260502203119 57 137 7.0 12.0 0.00 0.00 0.00 59 1023.8
20260502201604 57 115 7.0 13.0 0.00 0.00 0.00 54 1023.8
20260502194533 57 185 12.0 17.0 0.00 0.00 0.00 58 1023.7
20260502193006 58 187 9.0 15.0 0.00 0.00 0.00 56 1023.7
20260502191602 59 240 9.0 14.0 0.00 0.00 0.00 53 1023.9
20260502184556 57 225 7.0 15.0 0.00 0.00 0.00 58 1024.2
20260502183023 58 218 8.0 14.0 0.00 0.00 0.00 58 1024.5
20260502181605 57 253 6.0 16.0 0.00 0.00 0.00 60 1024.6
20260502163008 55 268 7.0 9.0 0.00 0.00 0.00 61 1024.8
20260502161623 55 260 3.0 8.0 0.00 0.00 0.00 61 1024.7
20260502151522 52 233 5.0 6.0 0.00 0.01 0.00 64 1024.5
20260502123054 46 103 11.0 17.0 0.00 0.14 0.00 67 1023.7
20260502121554 46 108 12.0 19.0 0.00 0.14 0.00 67 1023.5
20260502114547 46 117 11.0 17.0 0.00 0.17 0.00 67 1023.3
20260502113044 46 100 14.0 19.0 0.00 0.17 0.00 67 1023.1
20260502111544 46 100 12.0 18.0 0.00 0.17 0.00 67 1023.1
20260502110043 46 94 9.0 18.0 0.00 0.17 0.00 67 1023.1
20260502104541 46 79 12.0 16.0 0.00 0.17 0.00 67 1023.1
20260502103044 46 69 13.0 19.0 0.00 0.17 0.00 67 1023.0
20260502101550 46 82 15.0 19.0 0.00 0.17 0.00 67 1022.7
20260502071527 46 93 17.0 24.0 0.00 0.17 0.00 67 1022.7
20260502070024 46 87 17.0 23.0 0.00 0.17 0.00 67 1022.5
20260502064523 46 100 17.0 25.0 0.00 0.17 0.00 67 1022.5
20260502063027 46 86 16.0 24.0 0.00 0.17 0.00 67 1022.7
20260502061518 45 84 16.0 22.0 0.00 0.17 0.00 66 1022.5
20260502060016 45 80 16.0 23.0 0.00 0.17 0.17 66 1022.4
20260502054510 45 80 19.0 26.0 0.00 0.17 0.17 66 1022.4
20260502053006 45 105 20.0 26.0 0.00 0.17 0.17 65 1022.5
20260502051503 45 103 20.0 25.0 0.00 0.17 0.17 65 1022.6